Погода Костанай

Погода Костанай : погода сейчас, прогноз погоды и архив. Всё, что Вы хотите узнать о погоде Костанай!

Хотите узнать прогноз погоды в Костанае? Тогда Вам сюда: Погода в Костанае

Поиск расширенной информации на нашем сайте:

Другие новости

Новости СМИ2

Главная страница сайта

Новости сайта

02.10.2013

Напоминаем, что на нашем новом сайте вы можете получить высокодетализированные прогнозы погоды по пунктам России, СНГ и мира (включающие важные для авиации метеовеличины, такие как направление и скорость ветра, видимость, явления погоды, количество и форма облачности, нижняя и верхняя граница облачности), а также ознакомиться с разнообразными материалами по авиационной метеорологии и подборкой полезных ссылок на эту тему.

Сайт Метеоцентр.Азия посвящён разработке технологий оптимизации авиаметеорологического обслуживания, включая проектирование и перспективное создание нескольких автоматизированных авиаметеорологических систем:
- система выпуска высокодетальных прогностических карт явлений погоды для нижнего воздушного пространства по России и ближнему зарубежью;
- система верификации прогнозов TAF (выпускаемых синоптиками официальных АМСГ РФ и ближнего зарубежья) и AUTOTAF (выпускаемых сайтом Метеоцентр.Азия) - выявление ошибок, онлайн-сопоставление с фактической погодой METAR, автоматическое внесение коррективов в прогнозы при резком отклонении фактической погоды от прогноза, подсчёт оправдываемости прогнозов по элементам и в целом;
- система обработки, анализа и отображения авиаметеорологической информации для применения провайдерами метеорологической информации.


Погода Костанай - сегодня

Время (UTC), дата Ветер
(°,м/с) 
Видим.   Явления Облачность Т
(°С)
Тd
(°С)
f(%) Тe
(°С)
Pmin
(гПа)
dP
(гПа)
Po
(мм)
O2
(г/м3)
Тmin Tmax R s Состояние
почвы
00 22.05.17 180 (Ю) 20000 м  {гроза, ливн. осадки}  4/0 средняя, верхняя 
[Ac cuf|Ci ing]
+18 +10.2 60 +20  987.9  -1.1  735  276           
03 22.05.17 180 (Ю) 20000 м    3/0 верхняя 
[Ci fib]
+19.4 +10.7 57 +22  998.6  0.9  736  275      0.7     
06 22.05.17 250 (З) 20000 м    6/6 1000 м 
[Cu med, cong]
+24.4 +13.2 50 +31  998.8  0.5  736  270  +17    0.7     
09 22.05.17 230 (ЮЗ) 20000 м  пыльный позёмок  8/8 1000 м 
[Cu med, cong]
+27.2 +13.3 42 +34  998.3  -0.4  736  267           
12 22.05.17 230 (ЮЗ) 20000 м  пыльный позёмок  6/6 1000 м 
[Cu med, cong]
+28 +13.1 40 +34  998  -0.3  736  266           
15 22.05.17 250 (З) 20000 м  в посл. час ливневой дождь  10/10 600 м кучево-дожд. 
[Cb cap]
+24 +14 54 +31  997.9  -0.3  736  270    +28.7  0.0     
18 22.05.17 090 (В) н/о  в посл. час ливневой дождь  10/10 600 м кучево-дожд. 
[Cb cap]
+18.1 +13.7 75 +26  997.6  -0.5  735  275    +28.7  0.0     
21 22.05.17 360 (С) н/о  {ливн. осадки}  10/10 600 м 
[Sc]
+15.3 +12.7 84 +20  995.3  -2.6  733  277           
00 23.05.17 360 (С) 20000 м  {ливн. осадки}  8/8 1000 м 
[Sc]
+13.8 +11 83 +16  992.6  -2.7  731  278           
03 23.05.17 360 (С) 20000 м  в посл. час ливневой дождь  10/10 600 м кучево-дожд. 
[Cb cap]
+11.2 +9.4 89 +11  993.1  0.4  731  281      0.7     
06 23.05.17 340 (С) 20000 м  {ливн. осадки}  10/10 600 м 
[Sc]
+8.6 +6.8 88 +6  994.4  732  285  +11.2    0.7     
09 23.05.17 320 (СЗ) 20000 м  {ливн. осадки}  10/10 600 м 
[Sc]
+8.6 +6.4 86 +7  998.8  4.3  735  286           
12 23.05.17 320 (СЗ) 20000 м  {ливн. осадки}  10/10 600 м 
[Sc]
+8.8 +5.8 81 +8  1003.5  4.6  739  287           
15 23.05.17 270 (З) 20000 м    10/10 600 м 
[Sc]
+7.4 +4.5 82 +7  1006.1  2.5  741  290    +11.2     
18 23.05.17 290 (З) н/о  слаб. ливневой дождь  10/10 600 м кучево-дожд. 
[Cb cap]
+6.4 +4.8 89 +6  1007.3  1.1  742  291    +11.2     
21 23.05.17 320 (СЗ) н/о  в посл. час ливневой дождь  10/10 600 м 
[Sc]
+5.3 +3.9 91 +6  1008.1  0.8  742  293           
00 24.05.17 290 (З) 20000 м  {ливн. осадки}  9/9 600 м 
[Sc]
+5.1 +2.7 84 +4  1009.8  1.6  743  294           
03 24.05.17 320 (СЗ) 20000 м    9/9 600 м 
[Cu Sc]
+6 +2.6 79 +5  1012.2  2.4  745  293         
06 24.05.17 290 (З) 20000 м    8/8 1000 м 
[Cu med, cong]
+9.2 +3.8 69 +8  1013.3  1.4  746  290  +4.3       
09 24.05.17 290 (З) 20000 м    9/9 600 м 
[Cu Sc]
+12.2 +4.5 59 +11  1013.8  0.6  747  287           
12 24.05.17 270 (З) 20000 м    9/9 600 м 
[Cu Sc]
+13.7 +3.2 49 +13  1014.1  0.4  747  286           
15 24.05.17 250 (З) 20000 м    9/9 1000 м 
[Sc]
+14.2 +4.1 51 +14  1014.3  0.2  747  286    +14.8       
18 24.05.17 230 (ЮЗ) н/о    ясно 
+8.7 +1.5 61 +10  1016.1  1.3  748  292    +14.8       
21 24.05.17 230 (ЮЗ) н/о    ясно 
+6.5 +0.9 67 +7  1016.8  0.6  749  294           
00 25.05.17 200 (Ю) 20000 м    ясно 
+5.3 +1.8 78 +6  1016.9  0.1  749  296           
Время (UTC), дата Ветер
(°,м/с) 
Видим.   Явления Облачность Т
(°С)
Тd
(°С)
f(%) Тe
(°С)
Pmin
(гПа)
dP
(гПа)
Po
(мм)
O2
(г/м3)
Тmin Tmax R s Состояние
почвы

Для получения пояснительной информации подведите курсор к названию столбца.

ПОГОДА Костанай - архив

Всё, что Вы хотите узнать о погоде Костанай - удобно и подробно!

Выберите нужную дату (начиная с 1 января 2015* года) и нажмите кнопку "Найти".
Будут отображены архивные сводки погоды по пункту Костанай, начиная с указанной даты.


Отображать данные в формате CSV (для использования в таблицах Excel)


Внимание! Наш архив погоды предназначен исключительно для личного некоммерческого использования в познавательных целях. Если Вам необходимы официальные справки о состоянии погоды (для производственных, юридических, коммерческих и т.п. целей), обращайтесь в органы Росгидромета.

*Примечание: данная дата относится к архиву по метеостанциям СССР (Россия, СНГ, Балтия).
Архив по метеостанциям Зарубежной Европы и Азии (кроме Китая) хранится 10 дней, по другим регионам земного шара (Китай, Африка, Америка, Австралия, Океания) - 1 день.

Костанай - район местоположения метеостанции


Название, широта, долгота, высота метеостанции:
Костанай (город) 53.2°ш. 63.6°д. 156 м над ур. моря [Казахстан]

Дополнительная информация

В oтличие oт бoльшинства пoгoдных сайтoв мы публикуем пoдрoбную метеoинфoрмацию в детальнoм прoфессиoнальнoм фoрмате.

Характеристики температуры и влажнoсти вoздуха измеряются на высoте 2 м в тени вдали oт зданий и деревьев.
Скoрoсть ветра измеряется на высoте 10 м (на урoвне рoста челoвека скoрoсть ветра ниже в 1.5-2 раза). Если метеoстанция нахoдится в гoрoде или в лесу, тo скoрoсть ветра занижена на 2-4 м/с пo сравнению с oткрытым местoм. Скoрoсть ветра над акватoриями крупных рек и oзёр, а также на вершинах хoлмoв на 2-5 м/с выше, чем в oбычных услoвиях.
Атмoсфернoе давление в разных тoчках местнoсти мoжет значительнo oтличаться oт давления на метеoстанции, в зависимoсти oт услoвий рельефа (при пoдъёме на 10 м давление пoнижается примернo на 1 мм рт.ст.).